This is the latest recevied weather packets stored in our database for station/object KO4ZGL-13. If no packets are shown the sender has not sent any weather packets the latest 10 day(s).
| Time | Temp. | Humidity | Pressure | Rain* | Wind** | Luminosity | Snow |
|---|---|---|---|---|---|---|---|
| 1778093342 | 29.44° C | 57% | 1015.5 hPa | 0 mm | - | 369 W/m² | - |
| 1778093039 | 29.44° C | 57% | 1015.7 hPa | 0 mm | - | 629 W/m² | - |
| 1778092736 | 29.44° C | 56% | 1015.5 hPa | 0 mm | - | 317 W/m² | - |
| 1778092431 | 29.44° C | 56% | 1015.5 hPa | 0 mm | - | 687 W/m² | - |
| 1778092129 | 30.56° C | 55% | 1015.8 hPa | 0 mm | - | 590 W/m² | - |
| 1778091826 | 30° C | 57% | 1016.1 hPa | 0 mm | - | 689 W/m² | - |
| 1778091523 | 28.89° C | 59% | 1016.1 hPa | 0 mm | - | 681 W/m² | - |
| 1778091221 | 28.89° C | 57% | 1016.1 hPa | 0 mm | - | 301 W/m² | - |
| 1778090918 | 29.44° C | 57% | 1016.3 hPa | 0 mm | - | 485 W/m² | - |
| 1778090614 | 29.44° C | 58% | 1016.6 hPa | 0 mm | - | 594 W/m² | - |
| 1778090310 | 29.44° C | 59% | 1016.6 hPa | 0 mm | - | 618 W/m² | - |
| 1778090007 | 29.44° C | 57% | 1016.8 hPa | 0 mm | - | 706 W/m² | - |
| 1778089704 | 28.89° C | 59% | 1016.5 hPa | 0 mm | - | 681 W/m² | - |
| 1778089402 | 28.33° C | 59% | 1016.7 hPa | 0 mm | - | 619 W/m² | - |
| 1778089099 | 27.78° C | 62% | 1016.7 hPa | 0 mm | - | 649 W/m² | - |
| 1778088796 | 28.33° C | 61% | 1016.8 hPa | 0 mm | - | 382 W/m² | - |
| 1778088493 | 28.89° C | 60% | 1016.6 hPa | 0 mm | - | 423 W/m² | - |
| 1778088189 | 28.33° C | 60% | 1016.9 hPa | 0 mm | - | 527 W/m² | - |
| 1778087887 | 27.78° C | 60% | 1017.1 hPa | 0 mm | - | 625 W/m² | - |
| 1778087584 | 27.78° C | 62% | 1017 hPa | 0 mm | - | 425 W/m² | - |
| 1778087282 | 27.78° C | 66% | 1017.2 hPa | 0 mm | - | 340 W/m² | - |
| 1778086977 | 27.22° C | 63% | 1017 hPa | 0 mm | - | 307 W/m² | - |
| 1778086676 | 27.78° C | 62% | 1017 hPa | 0 mm | - | 414 W/m² | - |
| 1778086373 | 27.22° C | 62% | 1016.9 hPa | 0 mm | - | 469 W/m² | - |
| 1778086070 | 27.78° C | 62% | 1017.3 hPa | 0 mm | - | 403 W/m² | - |
* Rain latest hour (hover to see other rain measurements)
** Current wind speed in m/s (hover to see current wind gust speed)